owner,sensor,date,latitude,longitude,vertical_datum,wind_speed,wind_to_direction,wind_speed_of_gust,qcFlag 
COMPS,ioos:station:USF.COMPS:SHP:1,2017-07-01T00:00:00Z,30.0600,-84.2910,10.0,4.99,198.57,5.97,'1111122,1111122,1111122' 
COMPS,ioos:station:USF.COMPS:SHP:1,2017-07-01T00:06:00Z,30.0600,-84.2910,10.0,5.37,203.06,6.37,'1111122,1111122,1111122' 
COMPS,ioos:station:USF.COMPS:SHP:1,2017-07-01T00:12:00Z,30.0600,-84.2910,10.0,5.17,201.75,6.07,'1111122,1111122,1111122' 
COMPS,ioos:station:USF.COMPS:SHP:1,2017-07-01T00:18:00Z,30.0600,-84.2910,10.0,4.84,197.65,5.97,'1111122,1111122,1111122' 
COMPS,ioos:station:USF.COMPS:SHP:1,2017-07-01T00:24:00Z,30.0600,-84.2910,10.0,5.43,200.68,6.17,'1111122,1111122,1111122' 
COMPS,ioos:station:USF.COMPS:SHP:1,2017-07-01T00:30:00Z,30.0600,-84.2910,10.0,4.83,199.37,6.17,'1111122,1111122,1111122' 
COMPS,ioos:station:USF.COMPS:SHP:1,2017-07-01T00:36:00Z,30.0600,-84.2910,10.0,5.18,199.86,6.17,'1111122,1111122,1111122' 
COMPS,ioos:station:USF.COMPS:SHP:1,2017-07-01T00:42:00Z,30.0600,-84.2910,10.0,5.69,201.71,6.46,'1111122,1111122,1111122' 
COMPS,ioos:station:USF.COMPS:SHP:1,2017-07-01T00:48:00Z,30.0600,-84.2910,10.0,5.76,201.56,6.46,'1111122,1111122,1111122' 
COMPS,ioos:station:USF.COMPS:SHP:1,2017-07-01T00:54:00Z,30.0600,-84.2910,10.0,5.16,196.68,6.66,'1111122,1111122,1111122' 
COMPS,ioos:station:USF.COMPS:SHP:1,2017-07-01T01:00:00Z,30.0600,-84.2910,10.0,5.57,199.14,6.76,'1111122,1111122,1111122' 
COMPS,ioos:station:USF.COMPS:SHP:1,2017-07-01T01:06:00Z,30.0600,-84.2910,10.0,5.44,195.87,6.95,'1111122,1111122,1111122' 
COMPS,ioos:station:USF.COMPS:SHP:1,2017-07-01T01:12:00Z,30.0600,-84.2910,10.0,5.46,197.95,6.85,'1111122,1111122,1111122' 
COMPS,ioos:station:USF.COMPS:SHP:1,2017-07-01T01:18:00Z,30.0600,-84.2910,10.0,5.71,203.65,6.37,'1111122,1111122,1111122' 
COMPS,ioos:station:USF.COMPS:SHP:1,2017-07-01T01:24:00Z,30.0600,-84.2910,10.0,5.79,205.89,6.56,'1111122,1111122,1111122' 
COMPS,ioos:station:USF.COMPS:SHP:1,2017-07-01T01:30:00Z,30.0600,-84.2910,10.0,5.94,209.3,6.76,'1111122,1111122,1111122' 
COMPS,ioos:station:USF.COMPS:SHP:1,2017-07-01T01:36:00Z,30.0600,-84.2910,10.0,5.7,209.61,6.56,'1111122,1111122,1111122' 
COMPS,ioos:station:USF.COMPS:SHP:1,2017-07-01T01:42:00Z,30.0600,-84.2910,10.0,5.68,217.45,6.46,'1111122,1111122,1111122' 
COMPS,ioos:station:USF.COMPS:SHP:1,2017-07-01T01:48:00Z,30.0600,-84.2910,10.0,5.67,217.77,6.66,'1111122,1111122,1111122' 
COMPS,ioos:station:USF.COMPS:SHP:1,2017-07-01T01:54:00Z,30.0600,-84.2910,10.0,5.57,214.5,6.27,'1111122,1111122,1111122' 
COMPS,ioos:station:USF.COMPS:SHP:1,2017-07-01T02:00:00Z,30.0600,-84.2910,10.0,5.26,218.1,5.97,'1111122,1111122,1111122' 
COMPS,ioos:station:USF.COMPS:SHP:1,2017-07-01T02:06:00Z,30.0600,-84.2910,10.0,5.01,222.5,5.78,'1111122,1111122,1111122' 
COMPS,ioos:station:USF.COMPS:SHP:1,2017-07-01T02:12:00Z,30.0600,-84.2910,10.0,4.9,221.38,5.78,'1111122,1111122,1111122' 
COMPS,ioos:station:USF.COMPS:SHP:1,2017-07-01T02:18:00Z,30.0600,-84.2910,10.0,4.35,223.7,5.19,'1111122,1111122,1111122' 
COMPS,ioos:station:USF.COMPS:SHP:1,2017-07-01T02:24:00Z,30.0600,-84.2910,10.0,4.92,223.08,5.87,'1111122,1111122,1111122' 
COMPS,ioos:station:USF.COMPS:SHP:1,2017-07-01T02:30:00Z,30.0600,-84.2910,10.0,4.77,222.98,5.68,'1111122,1111122,1111122' 
COMPS,ioos:station:USF.COMPS:SHP:1,2017-07-01T02:36:00Z,30.0600,-84.2910,10.0,5.16,225.14,5.97,'1111122,1111122,1111122' 
COMPS,ioos:station:USF.COMPS:SHP:1,2017-07-01T02:42:00Z,30.0600,-84.2910,10.0,4.81,227.56,5.68,'1111122,1111122,1111122' 
COMPS,ioos:station:USF.COMPS:SHP:1,2017-07-01T02:48:00Z,30.0600,-84.2910,10.0,4.6,236.31,5.58,'1111122,1111122,1111122' 
COMPS,ioos:station:USF.COMPS:SHP:1,2017-07-01T02:54:00Z,30.0600,-84.2910,10.0,4.03,246.88,4.99,'1111122,1111122,1111122' 
COMPS,ioos:station:USF.COMPS:SHP:1,2017-07-01T03:00:00Z,30.0600,-84.2910,10.0,4.02,252.22,4.99,'1111122,1111122,1111122' 
COMPS,ioos:station:USF.COMPS:SHP:1,2017-07-01T03:06:00Z,30.0600,-84.2910,10.0,4.4,253.34,5.29,'1111122,1111122,1111122' 
COMPS,ioos:station:USF.COMPS:SHP:1,2017-07-01T03:12:00Z,30.0600,-84.2910,10.0,4.33,258.7,4.99,'1111122,1111122,1111122' 
COMPS,ioos:station:USF.COMPS:SHP:1,2017-07-01T03:18:00Z,30.0600,-84.2910,10.0,3.97,263.38,5.29,'1111122,1111122,1111122' 
COMPS,ioos:station:USF.COMPS:SHP:1,2017-07-01T03:24:00Z,30.0600,-84.2910,10.0,3.7,265.36,4.6,'1111122,1111122,1111122' 
COMPS,ioos:station:USF.COMPS:SHP:1,2017-07-01T03:30:00Z,30.0600,-84.2910,10.0,3.53,267.87,4.5,'1111122,1111122,1111122' 
COMPS,ioos:station:USF.COMPS:SHP:1,2017-07-01T03:36:00Z,30.0600,-84.2910,10.0,4.09,266.02,5.09,'1111122,1111122,1111122' 
COMPS,ioos:station:USF.COMPS:SHP:1,2017-07-01T03:42:00Z,30.0600,-84.2910,10.0,4.12,268.78,4.9,'1111122,1111122,1111122' 
COMPS,ioos:station:USF.COMPS:SHP:1,2017-07-01T03:48:00Z,30.0600,-84.2910,10.0,4.26,268.43,5.29,'1111122,1111122,1111122' 
COMPS,ioos:station:USF.COMPS:SHP:1,2017-07-01T03:54:00Z,30.0600,-84.2910,10.0,4.17,268.54,6.56,'1111122,1111122,1111122' 
COMPS,ioos:station:USF.COMPS:SHP:1,2017-07-01T04:00:00Z,30.0600,-84.2910,10.0,4.06,272.79,4.8,'1111122,1111122,1111122' 
COMPS,ioos:station:USF.COMPS:SHP:1,2017-07-01T04:06:00Z,30.0600,-84.2910,10.0,3.63,271.64,5.19,'1111122,1111122,1111122' 
COMPS,ioos:station:USF.COMPS:SHP:1,2017-07-01T04:12:00Z,30.0600,-84.2910,10.0,3.42,272.45,5.09,'1111122,1111122,1111122' 
COMPS,ioos:station:USF.COMPS:SHP:1,2017-07-01T04:18:00Z,30.0600,-84.2910,10.0,3.02,282.96,4.41,'1111122,1111122,1111122' 
COMPS,ioos:station:USF.COMPS:SHP:1,2017-07-01T04:24:00Z,30.0600,-84.2910,10.0,2.85,280.01,3.82,'1111122,1111122,1111122' 
COMPS,ioos:station:USF.COMPS:SHP:1,2017-07-01T04:30:00Z,30.0600,-84.2910,10.0,2.98,273.44,4.41,'1111122,1111122,1111122' 
COMPS,ioos:station:USF.COMPS:SHP:1,2017-07-01T04:36:00Z,30.0600,-84.2910,10.0,3.39,272.52,4.21,'1111122,1111122,1111122' 
COMPS,ioos:station:USF.COMPS:SHP:1,2017-07-01T04:42:00Z,30.0600,-84.2910,10.0,3.35,276.06,4.41,'1111122,1111122,1111122' 
COMPS,ioos:station:USF.COMPS:SHP:1,2017-07-01T04:48:00Z,30.0600,-84.2910,10.0,2.91,272.47,4.21,'1111122,1111122,1111122' 
COMPS,ioos:station:USF.COMPS:SHP:1,2017-07-01T04:54:00Z,30.0600,-84.2910,10.0,2.67,273.03,3.33,'1111122,1111122,1111122' 
COMPS,ioos:station:USF.COMPS:SHP:1,2017-07-01T05:00:00Z,30.0600,-84.2910,10.0,2.4,277.56,3.13,'1111122,1111122,1111122' 
COMPS,ioos:station:USF.COMPS:SHP:1,2017-07-01T05:06:00Z,30.0600,-84.2910,10.0,2.06,282.52,2.94,'1111122,1111122,1111122' 
COMPS,ioos:station:USF.COMPS:SHP:1,2017-07-01T05:12:00Z,30.0600,-84.2910,10.0,1.99,285.12,3.03,'1111122,1111122,1111122' 
COMPS,ioos:station:USF.COMPS:SHP:1,2017-07-01T05:18:00Z,30.0600,-84.2910,10.0,1.71,286.92,2.45,'1111122,1111122,1111122' 
COMPS,ioos:station:USF.COMPS:SHP:1,2017-07-01T05:24:00Z,30.0600,-84.2910,10.0,1.82,273.79,2.64,'1111122,1111122,1111122' 
COMPS,ioos:station:USF.COMPS:SHP:1,2017-07-01T05:30:00Z,30.0600,-84.2910,10.0,2.5,266.52,2.84,'1111122,1111122,1111122' 
COMPS,ioos:station:USF.COMPS:SHP:1,2017-07-01T05:36:00Z,30.0600,-84.2910,10.0,2.64,254.21,3.33,'1111122,1111122,1111122' 
COMPS,ioos:station:USF.COMPS:SHP:1,2017-07-01T05:42:00Z,30.0600,-84.2910,10.0,2.7,252.97,3.43,'1111122,1111122,1111122' 
COMPS,ioos:station:USF.COMPS:SHP:1,2017-07-01T05:48:00Z,30.0600,-84.2910,10.0,2.67,249.33,3.23,'1111122,1111122,1111122' 
COMPS,ioos:station:USF.COMPS:SHP:1,2017-07-01T05:54:00Z,30.0600,-84.2910,10.0,2.71,237.31,3.23,'1111122,1111122,1111122' 
COMPS,ioos:station:USF.COMPS:SHP:1,2017-07-01T06:00:00Z,30.0600,-84.2910,10.0,3.01,232.7,3.72,'1111122,1111122,1111122' 
COMPS,ioos:station:USF.COMPS:SHP:1,2017-07-01T06:06:00Z,30.0600,-84.2910,10.0,3.22,230.2,3.82,'1111122,1111122,1111122' 
COMPS,ioos:station:USF.COMPS:SHP:1,2017-07-01T06:12:00Z,30.0600,-84.2910,10.0,3.44,226.31,3.82,'1111122,1111122,1111122' 
COMPS,ioos:station:USF.COMPS:SHP:1,2017-07-01T06:18:00Z,30.0600,-84.2910,10.0,3.43,226.84,3.92,'1111122,1111122,1111122' 
COMPS,ioos:station:USF.COMPS:SHP:1,2017-07-01T06:24:00Z,30.0600,-84.2910,10.0,3.25,227.1,3.72,'1111122,1111122,1111122' 
COMPS,ioos:station:USF.COMPS:SHP:1,2017-07-01T06:30:00Z,30.0600,-84.2910,10.0,2.81,238.4,3.52,'1111122,1111122,1111122' 
COMPS,ioos:station:USF.COMPS:SHP:1,2017-07-01T06:36:00Z,30.0600,-84.2910,10.0,2.76,238.16,3.52,'1111122,1111122,1111122' 
COMPS,ioos:station:USF.COMPS:SHP:1,2017-07-01T06:42:00Z,30.0600,-84.2910,10.0,3.09,236.73,3.72,'1111122,1111122,1111122' 
COMPS,ioos:station:USF.COMPS:SHP:1,2017-07-01T06:48:00Z,30.0600,-84.2910,10.0,3.13,240.95,3.92,'1111122,1111122,1111122' 
COMPS,ioos:station:USF.COMPS:SHP:1,2017-07-01T06:54:00Z,30.0600,-84.2910,10.0,2.89,233.67,3.43,'1111122,1111122,1111122' 
COMPS,ioos:station:USF.COMPS:SHP:1,2017-07-01T07:00:00Z,30.0600,-84.2910,10.0,3.47,232.58,4.01,'1111122,1111122,1111122' 
COMPS,ioos:station:USF.COMPS:SHP:1,2017-07-01T07:06:00Z,30.0600,-84.2910,10.0,3.27,242.4,3.92,'1111122,1111122,1111122' 
COMPS,ioos:station:USF.COMPS:SHP:1,2017-07-01T07:12:00Z,30.0600,-84.2910,10.0,3.16,249.55,3.62,'1111122,1111122,1111122' 
COMPS,ioos:station:USF.COMPS:SHP:1,2017-07-01T07:18:00Z,30.0600,-84.2910,10.0,3.05,256.75,3.72,'1111122,1111122,1111122' 
COMPS,ioos:station:USF.COMPS:SHP:1,2017-07-01T07:24:00Z,30.0600,-84.2910,10.0,2.8,268.24,4.01,'1111122,1111122,1111122' 
COMPS,ioos:station:USF.COMPS:SHP:1,2017-07-01T07:30:00Z,30.0600,-84.2910,10.0,2.31,257.5,2.84,'1111122,1111122,1111122' 
COMPS,ioos:station:USF.COMPS:SHP:1,2017-07-01T07:36:00Z,30.0600,-84.2910,10.0,2.4,252.65,2.84,'1111122,1111122,1111122' 
COMPS,ioos:station:USF.COMPS:SHP:1,2017-07-01T07:42:00Z,30.0600,-84.2910,10.0,1.74,273.44,2.25,'1111122,1111122,1111122' 
COMPS,ioos:station:USF.COMPS:SHP:1,2017-07-01T07:48:00Z,30.0600,-84.2910,10.0,1.8,270.92,2.35,'1111122,1111122,1111122' 
COMPS,ioos:station:USF.COMPS:SHP:1,2017-07-01T07:54:00Z,30.0600,-84.2910,10.0,1.81,290.29,2.45,'1111122,1111122,1111122' 
COMPS,ioos:station:USF.COMPS:SHP:1,2017-07-01T08:00:00Z,30.0600,-84.2910,10.0,1.65,300.75,2.45,'1111122,1111122,1111122' 
COMPS,ioos:station:USF.COMPS:SHP:1,2017-07-01T08:06:00Z,30.0600,-84.2910,10.0,1.24,312.66,1.76,'1111122,1111122,1111122' 
COMPS,ioos:station:USF.COMPS:SHP:1,2017-07-01T08:12:00Z,30.0600,-84.2910,10.0,1.37,310.81,1.76,'1111122,1111122,1111122' 
COMPS,ioos:station:USF.COMPS:SHP:1,2017-07-01T08:18:00Z,30.0600,-84.2910,10.0,1.73,321.71,2.15,'1111122,1111122,1111122' 
COMPS,ioos:station:USF.COMPS:SHP:1,2017-07-01T08:24:00Z,30.0600,-84.2910,10.0,1.84,326.03,2.15,'1111122,1111122,1111122' 
COMPS,ioos:station:USF.COMPS:SHP:1,2017-07-01T08:30:00Z,30.0600,-84.2910,10.0,1.72,318.34,2.45,'1111122,1111122,1111122' 
COMPS,ioos:station:USF.COMPS:SHP:1,2017-07-01T08:36:00Z,30.0600,-84.2910,10.0,2.05,319.54,2.54,'1111122,1111122,1111122' 
COMPS,ioos:station:USF.COMPS:SHP:1,2017-07-01T08:42:00Z,30.0600,-84.2910,10.0,2.09,317.0,2.64,'1111122,1111122,1111122' 
COMPS,ioos:station:USF.COMPS:SHP:1,2017-07-01T08:48:00Z,30.0600,-84.2910,10.0,2.15,315.08,2.74,'1111122,1111122,1111122' 
COMPS,ioos:station:USF.COMPS:SHP:1,2017-07-01T08:54:00Z,30.0600,-84.2910,10.0,2.3,321.42,3.13,'1111122,1111122,1111122' 
COMPS,ioos:station:USF.COMPS:SHP:1,2017-07-01T09:00:00Z,30.0600,-84.2910,10.0,2.27,320.66,2.94,'1111122,1111122,1111122' 
COMPS,ioos:station:USF.COMPS:SHP:1,2017-07-01T09:06:00Z,30.0600,-84.2910,10.0,2.41,317.03,3.03,'1111122,1111122,1111122' 
COMPS,ioos:station:USF.COMPS:SHP:1,2017-07-01T09:12:00Z,30.0600,-84.2910,10.0,1.97,324.84,2.84,'1111122,1111122,1111122' 
COMPS,ioos:station:USF.COMPS:SHP:1,2017-07-01T09:18:00Z,30.0600,-84.2910,10.0,2.03,324.84,3.23,'1111122,1111122,1111122' 
COMPS,ioos:station:USF.COMPS:SHP:1,2017-07-01T09:24:00Z,30.0600,-84.2910,10.0,1.97,333.18,2.84,'1111122,1111122,1111122' 
COMPS,ioos:station:USF.COMPS:SHP:1,2017-07-01T09:30:00Z,30.0600,-84.2910,10.0,2.36,340.68,3.52,'1111122,1111122,1111122' 
COMPS,ioos:station:USF.COMPS:SHP:1,2017-07-01T09:36:00Z,30.0600,-84.2910,10.0,2.11,350.81,2.94,'1111122,1111122,1111122' 
COMPS,ioos:station:USF.COMPS:SHP:1,2017-07-01T09:42:00Z,30.0600,-84.2910,10.0,2.36,350.63,3.23,'1111122,1111122,1111122' 
COMPS,ioos:station:USF.COMPS:SHP:1,2017-07-01T09:48:00Z,30.0600,-84.2910,10.0,2.07,349.83,3.13,'1111122,1111122,1111122' 
COMPS,ioos:station:USF.COMPS:SHP:1,2017-07-01T09:54:00Z,30.0600,-84.2910,10.0,2.12,352.05,3.33,'1111122,1111122,1111122' 
COMPS,ioos:station:USF.COMPS:SHP:1,2017-07-01T10:00:00Z,30.0600,-84.2910,10.0,2.32,355.58,4.01,'1111122,1111122,1111122' 
COMPS,ioos:station:USF.COMPS:SHP:1,2017-07-01T10:06:00Z,30.0600,-84.2910,10.0,2.03,356.28,2.94,'1111122,1111122,1111122' 
COMPS,ioos:station:USF.COMPS:SHP:1,2017-07-01T10:12:00Z,30.0600,-84.2910,10.0,1.76,355.42,2.64,'1111122,1111122,1111122' 
COMPS,ioos:station:USF.COMPS:SHP:1,2017-07-01T10:18:00Z,30.0600,-84.2910,10.0,2.13,355.44,3.33,'1111122,1111122,1111122' 
COMPS,ioos:station:USF.COMPS:SHP:1,2017-07-01T10:24:00Z,30.0600,-84.2910,10.0,1.23,3.88,1.86,'1111122,1111122,1111122' 
COMPS,ioos:station:USF.COMPS:SHP:1,2017-07-01T10:30:00Z,30.0600,-84.2910,10.0,1.47,10.22,2.15,'1111122,1111122,1111122' 
COMPS,ioos:station:USF.COMPS:SHP:1,2017-07-01T10:36:00Z,30.0600,-84.2910,10.0,1.12,14.0,1.56,'1111122,1111122,1111122' 
COMPS,ioos:station:USF.COMPS:SHP:1,2017-07-01T10:42:00Z,30.0600,-84.2910,10.0,1.15,7.28,1.86,'1111122,1111122,1111122' 
COMPS,ioos:station:USF.COMPS:SHP:1,2017-07-01T10:48:00Z,30.0600,-84.2910,10.0,1.11,14.47,1.66,'1111122,1111122,1111122' 
COMPS,ioos:station:USF.COMPS:SHP:1,2017-07-01T10:54:00Z,30.0600,-84.2910,10.0,1.08,17.44,1.56,'1111122,1111122,1111122' 
COMPS,ioos:station:USF.COMPS:SHP:1,2017-07-01T11:00:00Z,30.0600,-84.2910,10.0,1.05,8.59,1.47,'1111122,1111122,1111122' 
COMPS,ioos:station:USF.COMPS:SHP:1,2017-07-01T11:06:00Z,30.0600,-84.2910,10.0,1.17,4.16,1.66,'1111122,1111122,1111122' 
COMPS,ioos:station:USF.COMPS:SHP:1,2017-07-01T11:12:00Z,30.0600,-84.2910,10.0,1.18,8.67,2.05,'1111122,1111122,1111122' 
COMPS,ioos:station:USF.COMPS:SHP:1,2017-07-01T11:18:00Z,30.0600,-84.2910,10.0,0.96,15.28,1.47,'1111122,1111122,1111122' 
COMPS,ioos:station:USF.COMPS:SHP:1,2017-07-01T11:24:00Z,30.0600,-84.2910,10.0,0.71,28.16,1.17,'1111122,1111122,1111122' 
COMPS,ioos:station:USF.COMPS:SHP:1,2017-07-01T11:30:00Z,30.0600,-84.2910,10.0,0.54,30.68,1.17,'1111122,1111122,1111122' 
COMPS,ioos:station:USF.COMPS:SHP:1,2017-07-01T11:36:00Z,30.0600,-84.2910,10.0,0.96,18.27,1.96,'1111122,1111122,1111122' 
COMPS,ioos:station:USF.COMPS:SHP:1,2017-07-01T11:42:00Z,30.0600,-84.2910,10.0,1.38,14.71,1.86,'1111122,1111122,1111122' 
COMPS,ioos:station:USF.COMPS:SHP:1,2017-07-01T11:48:00Z,30.0600,-84.2910,10.0,0.7,27.23,1.37,'1111122,1111122,1111122' 
COMPS,ioos:station:USF.COMPS:SHP:1,2017-07-01T11:54:00Z,30.0600,-84.2910,10.0,0.41,32.99,1.17,'1111122,1111122,1111122' 
COMPS,ioos:station:USF.COMPS:SHP:1,2017-07-01T12:00:00Z,30.0600,-84.2910,10.0,0.8,27.06,1.56,'1111122,1111122,1111122' 
COMPS,ioos:station:USF.COMPS:SHP:1,2017-07-01T12:06:00Z,30.0600,-84.2910,10.0,1.24,31.95,2.15,'1111122,1111122,1111122' 
COMPS,ioos:station:USF.COMPS:SHP:1,2017-07-01T12:12:00Z,30.0600,-84.2910,10.0,1.65,8.27,2.54,'1111122,1111122,1111122' 
COMPS,ioos:station:USF.COMPS:SHP:1,2017-07-01T12:18:00Z,30.0600,-84.2910,10.0,1.73,9.23,2.54,'1111122,1111122,1111122' 
COMPS,ioos:station:USF.COMPS:SHP:1,2017-07-01T12:24:00Z,30.0600,-84.2910,10.0,1.6,359.75,2.05,'1111122,1111122,1111122' 
COMPS,ioos:station:USF.COMPS:SHP:1,2017-07-01T12:30:00Z,30.0600,-84.2910,10.0,1.52,5.88,2.45,'1111122,1111122,1111122' 
COMPS,ioos:station:USF.COMPS:SHP:1,2017-07-01T12:36:00Z,30.0600,-84.2910,10.0,2.3,0.5,3.13,'1111122,1111122,1111122' 
COMPS,ioos:station:USF.COMPS:SHP:1,2017-07-01T12:42:00Z,30.0600,-84.2910,10.0,1.98,354.92,3.43,'1111122,1111122,1111122' 
COMPS,ioos:station:USF.COMPS:SHP:1,2017-07-01T12:48:00Z,30.0600,-84.2910,10.0,2.02,358.68,2.64,'1111122,1111122,1111122' 
COMPS,ioos:station:USF.COMPS:SHP:1,2017-07-01T12:54:00Z,30.0600,-84.2910,10.0,2.1,8.6,2.64,'1111122,1111122,1111122' 
COMPS,ioos:station:USF.COMPS:SHP:1,2017-07-01T13:00:00Z,30.0600,-84.2910,10.0,1.17,6.39,2.05,'1111122,1111122,1111122' 
COMPS,ioos:station:USF.COMPS:SHP:1,2017-07-01T13:06:00Z,30.0600,-84.2910,10.0,0.82,345.16,1.56,'1111122,1111122,1111122' 
COMPS,ioos:station:USF.COMPS:SHP:1,2017-07-01T13:12:00Z,30.0600,-84.2910,10.0,0.78,326.84,1.47,'1111122,1111122,1111122' 
COMPS,ioos:station:USF.COMPS:SHP:1,2017-07-01T13:18:00Z,30.0600,-84.2910,10.0,1.82,334.63,3.23,'1111122,1111122,1111122' 
COMPS,ioos:station:USF.COMPS:SHP:1,2017-07-01T13:24:00Z,30.0600,-84.2910,10.0,2.64,315.83,3.43,'1111122,1111122,1111122' 
COMPS,ioos:station:USF.COMPS:SHP:1,2017-07-01T13:30:00Z,30.0600,-84.2910,10.0,2.91,322.91,4.21,'1111122,1111122,1111122' 
COMPS,ioos:station:USF.COMPS:SHP:1,2017-07-01T13:36:00Z,30.0600,-84.2910,10.0,3.21,334.42,4.31,'1111122,1111122,1111122' 
COMPS,ioos:station:USF.COMPS:SHP:1,2017-07-01T13:42:00Z,30.0600,-84.2910,10.0,4.12,346.81,5.58,'1111122,1111122,1111122' 
COMPS,ioos:station:USF.COMPS:SHP:1,2017-07-01T13:48:00Z,30.0600,-84.2910,10.0,3.27,350.13,4.31,'1111122,1111122,1111122' 
COMPS,ioos:station:USF.COMPS:SHP:1,2017-07-01T13:54:00Z,30.0600,-84.2910,10.0,2.85,356.12,4.11,'1111122,1111122,1111122' 
COMPS,ioos:station:USF.COMPS:SHP:1,2017-07-01T14:00:00Z,30.0600,-84.2910,10.0,3.2,358.63,4.5,'1111122,1111122,1111122' 
COMPS,ioos:station:USF.COMPS:SHP:1,2017-07-01T14:06:00Z,30.0600,-84.2910,10.0,3.07,356.45,4.41,'1111122,1111122,1111122' 
COMPS,ioos:station:USF.COMPS:SHP:1,2017-07-01T14:12:00Z,30.0600,-84.2910,10.0,3.05,353.03,4.11,'1111122,1111122,1111122' 
COMPS,ioos:station:USF.COMPS:SHP:1,2017-07-01T14:18:00Z,30.0600,-84.2910,10.0,2.57,342.96,4.11,'1111122,1111122,1111122' 
COMPS,ioos:station:USF.COMPS:SHP:1,2017-07-01T14:24:00Z,30.0600,-84.2910,10.0,2.25,314.5,3.72,'1111122,1111122,1111122' 
COMPS,ioos:station:USF.COMPS:SHP:1,2017-07-01T14:30:00Z,30.0600,-84.2910,10.0,2.08,295.54,3.03,'1111122,1111122,1111122' 
COMPS,ioos:station:USF.COMPS:SHP:1,2017-07-01T14:36:00Z,30.0600,-84.2910,10.0,2.39,267.61,2.94,'1111122,1111122,1111122' 
COMPS,ioos:station:USF.COMPS:SHP:1,2017-07-01T14:42:00Z,30.0600,-84.2910,10.0,2.31,273.22,3.13,'1111122,1111122,1111122' 
COMPS,ioos:station:USF.COMPS:SHP:1,2017-07-01T14:48:00Z,30.0600,-84.2910,10.0,2.13,272.53,2.84,'1111122,1111122,1111122' 
COMPS,ioos:station:USF.COMPS:SHP:1,2017-07-01T14:54:00Z,30.0600,-84.2910,10.0,2.06,275.62,2.94,'1111122,1111122,1111122' 
COMPS,ioos:station:USF.COMPS:SHP:1,2017-07-01T15:00:00Z,30.0600,-84.2910,10.0,2.02,293.8,3.23,'1111122,1111122,1111122' 
COMPS,ioos:station:USF.COMPS:SHP:1,2017-07-01T15:06:00Z,30.0600,-84.2910,10.0,2.05,283.92,3.13,'1111122,1111122,1111122' 
COMPS,ioos:station:USF.COMPS:SHP:1,2017-07-01T15:12:00Z,30.0600,-84.2910,10.0,2.2,288.61,3.13,'1111122,1111122,1111122' 
COMPS,ioos:station:USF.COMPS:SHP:1,2017-07-01T15:18:00Z,30.0600,-84.2910,10.0,1.77,279.8,2.84,'1111122,1111122,1111122' 
COMPS,ioos:station:USF.COMPS:SHP:1,2017-07-01T15:24:00Z,30.0600,-84.2910,10.0,2.39,267.18,3.03,'1111122,1111122,1111122' 
COMPS,ioos:station:USF.COMPS:SHP:1,2017-07-01T15:30:00Z,30.0600,-84.2910,10.0,2.27,257.69,2.84,'1111122,1111122,1111122' 
COMPS,ioos:station:USF.COMPS:SHP:1,2017-07-01T15:36:00Z,30.0600,-84.2910,10.0,2.09,237.72,2.45,'1111122,1111122,1111122' 
COMPS,ioos:station:USF.COMPS:SHP:1,2017-07-01T15:42:00Z,30.0600,-84.2910,10.0,1.96,230.76,2.64,'1111122,1111122,1111122' 
COMPS,ioos:station:USF.COMPS:SHP:1,2017-07-01T15:48:00Z,30.0600,-84.2910,10.0,1.81,223.97,2.64,'1111122,1111122,1111122' 
COMPS,ioos:station:USF.COMPS:SHP:1,2017-07-01T15:54:00Z,30.0600,-84.2910,10.0,1.53,213.42,2.05,'1111122,1111122,1111122' 
COMPS,ioos:station:USF.COMPS:SHP:1,2017-07-01T16:00:00Z,30.0600,-84.2910,10.0,1.97,218.09,2.45,'1111122,1111122,1111122' 
COMPS,ioos:station:USF.COMPS:SHP:1,2017-07-01T16:06:00Z,30.0600,-84.2910,10.0,2.03,220.18,2.45,'1111122,1111122,1111122' 
COMPS,ioos:station:USF.COMPS:SHP:1,2017-07-01T16:12:00Z,30.0600,-84.2910,10.0,2.03,211.46,2.54,'1111122,1111122,1111122' 
COMPS,ioos:station:USF.COMPS:SHP:1,2017-07-01T16:18:00Z,30.0600,-84.2910,10.0,2.07,212.8,2.35,'1111122,1111122,1111122' 
COMPS,ioos:station:USF.COMPS:SHP:1,2017-07-01T16:24:00Z,30.0600,-84.2910,10.0,2.12,205.42,2.45,'1111122,1111122,1111122' 
COMPS,ioos:station:USF.COMPS:SHP:1,2017-07-01T16:30:00Z,30.0600,-84.2910,10.0,1.92,191.6,2.64,'1111122,1111122,1111122' 
COMPS,ioos:station:USF.COMPS:SHP:1,2017-07-01T16:36:00Z,30.0600,-84.2910,10.0,1.65,185.15,2.35,'1111122,1111122,1111122' 
COMPS,ioos:station:USF.COMPS:SHP:1,2017-07-01T16:42:00Z,30.0600,-84.2910,10.0,1.51,180.09,2.54,'1111122,1111122,1111122' 
COMPS,ioos:station:USF.COMPS:SHP:1,2017-07-01T16:48:00Z,30.0600,-84.2910,10.0,1.59,176.72,2.54,'1111122,1111122,1111122' 
COMPS,ioos:station:USF.COMPS:SHP:1,2017-07-01T16:54:00Z,30.0600,-84.2910,10.0,1.52,184.84,2.45,'1111122,1111122,1111122' 
COMPS,ioos:station:USF.COMPS:SHP:1,2017-07-01T17:00:00Z,30.0600,-84.2910,10.0,1.18,182.12,2.15,'1111122,1111122,1111122' 
COMPS,ioos:station:USF.COMPS:SHP:1,2017-07-01T17:06:00Z,30.0600,-84.2910,10.0,1.56,180.89,2.64,'1111122,1111122,1111122' 
COMPS,ioos:station:USF.COMPS:SHP:1,2017-07-01T17:12:00Z,30.0600,-84.2910,10.0,1.74,183.14,2.54,'1111122,1111122,1111122' 
COMPS,ioos:station:USF.COMPS:SHP:1,2017-07-01T17:18:00Z,30.0600,-84.2910,10.0,1.98,176.85,3.03,'1111122,1111122,1111122' 
COMPS,ioos:station:USF.COMPS:SHP:1,2017-07-01T17:24:00Z,30.0600,-84.2910,10.0,2.36,171.01,3.03,'1111122,1111122,1111122' 
COMPS,ioos:station:USF.COMPS:SHP:1,2017-07-01T17:30:00Z,30.0600,-84.2910,10.0,2.33,167.78,3.13,'1111122,1111122,1111122' 
COMPS,ioos:station:USF.COMPS:SHP:1,2017-07-01T17:36:00Z,30.0600,-84.2910,10.0,2.77,158.48,3.43,'1111122,1111122,1111122' 
COMPS,ioos:station:USF.COMPS:SHP:1,2017-07-01T17:42:00Z,30.0600,-84.2910,10.0,2.39,162.6,2.94,'1111122,1111122,1111122' 
COMPS,ioos:station:USF.COMPS:SHP:1,2017-07-01T17:48:00Z,30.0600,-84.2910,10.0,3.03,151.08,3.82,'1111122,1111122,1111122' 
COMPS,ioos:station:USF.COMPS:SHP:1,2017-07-01T17:54:00Z,30.0600,-84.2910,10.0,3.14,160.13,3.82,'1111122,1111122,1111122' 
COMPS,ioos:station:USF.COMPS:SHP:1,2017-07-01T18:00:00Z,30.0600,-84.2910,10.0,3.0,157.81,3.82,'1111122,1111122,1111122' 
COMPS,ioos:station:USF.COMPS:SHP:1,2017-07-01T18:06:00Z,30.0600,-84.2910,10.0,3.0,165.14,3.52,'1111122,1111122,1111122' 
COMPS,ioos:station:USF.COMPS:SHP:1,2017-07-01T18:12:00Z,30.0600,-84.2910,10.0,2.88,171.32,3.82,'1111122,1111122,1111122' 
COMPS,ioos:station:USF.COMPS:SHP:1,2017-07-01T18:18:00Z,30.0600,-84.2910,10.0,2.58,172.94,3.62,'1111122,1111122,1111122' 
COMPS,ioos:station:USF.COMPS:SHP:1,2017-07-01T18:24:00Z,30.0600,-84.2910,10.0,3.23,168.78,4.01,'1111122,1111122,1111122' 
COMPS,ioos:station:USF.COMPS:SHP:1,2017-07-01T18:30:00Z,30.0600,-84.2910,10.0,3.03,166.64,4.01,'1111122,1111122,1111122' 
COMPS,ioos:station:USF.COMPS:SHP:1,2017-07-01T18:36:00Z,30.0600,-84.2910,10.0,3.45,174.88,4.41,'1111122,1111122,1111122' 
COMPS,ioos:station:USF.COMPS:SHP:1,2017-07-01T18:42:00Z,30.0600,-84.2910,10.0,3.88,172.64,4.8,'1111122,1111122,1111122' 
COMPS,ioos:station:USF.COMPS:SHP:1,2017-07-01T18:48:00Z,30.0600,-84.2910,10.0,3.94,176.08,5.58,'1111122,1111122,1111122' 
COMPS,ioos:station:USF.COMPS:SHP:1,2017-07-01T18:54:00Z,30.0600,-84.2910,10.0,3.8,181.7,5.19,'1111122,1111122,1111122' 
COMPS,ioos:station:USF.COMPS:SHP:1,2017-07-01T19:00:00Z,30.0600,-84.2910,10.0,3.79,175.88,5.29,'1111122,1111122,1111122' 
COMPS,ioos:station:USF.COMPS:SHP:1,2017-07-01T19:06:00Z,30.0600,-84.2910,10.0,4.29,177.14,5.58,'1111122,1111122,1111122' 
COMPS,ioos:station:USF.COMPS:SHP:1,2017-07-01T19:12:00Z,30.0600,-84.2910,10.0,4.22,182.85,5.48,'1111122,1111122,1111122' 
COMPS,ioos:station:USF.COMPS:SHP:1,2017-07-01T19:18:00Z,30.0600,-84.2910,10.0,3.46,185.11,5.48,'1111122,1111122,1111122' 
COMPS,ioos:station:USF.COMPS:SHP:1,2017-07-01T19:24:00Z,30.0600,-84.2910,10.0,3.81,185.87,5.19,'1111122,1111122,1111122' 
COMPS,ioos:station:USF.COMPS:SHP:1,2017-07-01T19:30:00Z,30.0600,-84.2910,10.0,3.9,182.29,5.39,'1111122,1111122,1111122' 